WXM80 ListenWXM80 Stop

You find our weather info also at:

UK Metoffice

WeatherCloud

Weather Underground

Northeastern Weather Network

AWEKAS

Citizen Weather Observer Program (CWOP)

HAMweather, WeatherForYou, PWS Weather


Weather Underground History page Text

Daily Summary for June 24, 2017 Units:  Both    English   Metric
« Previous Day
Next Day »
Daily Weekly Monthly Yearly Custom
  High: Low: Average:
Temperature: 88.6 °F /  31.4 °C 71.7 °F /  22.1 °C 78.6 °F /  25.9 °C
Dew Point: 77.5 °F /  25.3 °C 59.2 °F /  15.1 °C 68 °F /  20 °C
Humidity: 97 % 41 % 73 %
Wind Speed: 8.8 mph /  14.2 km/h - 2.2 mph /  3.5 km/h
Wind Gust: 16.0 mph /  25.7 km/h - -
Wind:- - WSW
Pressure: 29.84 in /  1010.4 hPa 29.52 in /  999.5 hPa -
Precipitation: 1.17 in /  29.72 mm    
Historical Graphs
 
 
Tabular Data for June 24, 2017
Time Temperature Dew Point Pressure Wind Wind Speed Wind Gust Humidity Rainfall Rate (Hourly)
00:02 77.7 °F /  25.4 °C 72.8 °F /  22.7 °C 29.57 in /  1001.2 hPa SSW 4.0 mph /  6.4 km/h 7.0 mph /  11.3 km/h 85 % 0.00 in /  0 mm
00:07 77.7 °F /  25.4 °C 72.8 °F /  22.7 °C 29.58 in /  1001.6 hPa SW 0.7 mph /  1.1 km/h 3.5 mph /  5.6 km/h 85 % 0.00 in /  0 mm
00:12 77.6 °F /  25.3 °C 72.7 °F /  22.6 °C 29.57 in /  1001.2 hPa SW 1.4 mph /  2.3 km/h 3.5 mph /  5.6 km/h 85 % 0.00 in /  0 mm
00:17 77.6 °F /  25.3 °C 72.7 °F /  22.6 °C 29.57 in /  1001.2 hPa WSW 2.2 mph /  3.5 km/h 4.6 mph /  7.4 km/h 85 % 0.00 in /  0 mm
00:22 77.5 °F /  25.3 °C 73.0 °F /  22.8 °C 29.57 in /  1001.2 hPa SW 1.6 mph /  2.6 km/h 3.5 mph /  5.6 km/h 86 % 0.00 in /  0 mm
00:27 77.3 °F /  25.2 °C 72.8 °F /  22.7 °C 29.58 in /  1001.6 hPa West 1.8 mph /  2.9 km/h 3.5 mph /  5.6 km/h 86 % 0.00 in /  0 mm
00:32 77.2 °F /  25.1 °C 72.7 °F /  22.6 °C 29.57 in /  1001.2 hPa SSE 1.2 mph /  1.9 km/h 3.5 mph /  5.6 km/h 86 % 0.00 in /  0 mm
00:37 77.0 °F /  25 °C 72.5 °F /  22.5 °C 29.57 in /  1001.2 hPa SSW 1.5 mph /  2.4 km/h 5.0 mph /  8 km/h 86 % 0.00 in /  0 mm
00:42 76.9 °F /  24.9 °C 72.4 °F /  22.4 °C 29.57 in /  1001.2 hPa SSW 2.6 mph /  4.2 km/h 4.0 mph /  6.4 km/h 86 % 0.00 in /  0 mm
00:47 76.7 °F /  24.8 °C 72.5 °F /  22.5 °C 29.57 in /  1001.2 hPa SW 0.5 mph /  0.8 km/h 2.3 mph /  3.7 km/h 87 % 0.00 in /  0 mm
00:52 76.6 °F /  24.8 °C 72.4 °F /  22.4 °C 29.57 in /  1001.2 hPa SW 2.9 mph /  4.7 km/h 9.2 mph /  14.8 km/h 87 % 0.00 in /  0 mm
00:57 76.4 °F /  24.7 °C 72.2 °F /  22.3 °C 29.57 in /  1001.2 hPa West 1.6 mph /  2.6 km/h 3.5 mph /  5.6 km/h 87 % 0.00 in /  0 mm
01:02 76.3 °F /  24.6 °C 72.5 °F /  22.5 °C 29.57 in /  1001.2 hPa SSW 1.5 mph /  2.4 km/h 4.0 mph /  6.4 km/h 88 % 0.00 in /  0 mm
01:07 76.3 °F /  24.6 °C 72.5 °F /  22.5 °C 29.57 in /  1001.2 hPa SSW 2.1 mph /  3.4 km/h 6.9 mph /  11.1 km/h 88 % 0.00 in /  0 mm
01:12 76.2 °F /  24.6 °C 72.4 °F /  22.4 °C 29.57 in /  1001.2 hPa SSW 0.8 mph /  1.3 km/h 3.0 mph /  4.8 km/h 88 % 0.00 in /  0 mm
01:17 76.1 °F /  24.5 °C 72.3 °F /  22.4 °C 29.57 in /  1001.2 hPa NW 0.9 mph /  1.4 km/h 4.6 mph /  7.4 km/h 88 % 0.00 in /  0 mm
01:22 76.1 °F /  24.5 °C 72.3 °F /  22.4 °C 29.57 in /  1001.2 hPa SW 0.2 mph /  0.3 km/h 1.2 mph /  1.9 km/h 88 % 0.00 in /  0 mm
01:27 76.0 °F /  24.4 °C 72.2 °F /  22.3 °C 29.57 in /  1001.2 hPa SSE 0.2 mph /  0.3 km/h 1.2 mph /  1.9 km/h 88 % 0.00 in /  0 mm
01:32 76.0 °F /  24.4 °C 72.2 °F /  22.3 °C 29.56 in /  1000.9 hPa SSW 1.1 mph /  1.8 km/h 2.0 mph /  3.2 km/h 88 % 0.00 in /  0 mm
01:37 76.0 °F /  24.4 °C 72.2 °F /  22.3 °C 29.56 in /  1000.9 hPa SW 2.6 mph /  4.2 km/h 4.6 mph /  7.4 km/h 88 % 0.00 in /  0 mm
01:43 75.9 °F /  24.4 °C 72.1 °F /  22.3 °C 29.56 in /  1000.9 hPa SSW 2.4 mph /  3.9 km/h 5.0 mph /  8 km/h 88 % 0.00 in /  0 mm
01:48 75.9 °F /  24.4 °C 72.4 °F /  22.4 °C 29.56 in /  1000.9 hPa SW 2.0 mph /  3.2 km/h 5.8 mph /  9.3 km/h 89 % 0.00 in /  0 mm
01:53 75.9 °F /  24.4 °C 72.4 °F /  22.4 °C 29.56 in /  1000.9 hPa SW 0.9 mph /  1.4 km/h 3.5 mph /  5.6 km/h 89 % 0.00 in /  0 mm
01:58 75.8 °F /  24.3 °C 72.3 °F /  22.4 °C 29.56 in /  1000.9 hPa South 3.8 mph /  6.1 km/h 4.6 mph /  7.4 km/h 89 % 0.00 in /  0 mm
02:03 75.8 °F /  24.3 °C 72.3 °F /  22.4 °C 29.56 in /  1000.9 hPa SW 2.8 mph /  4.5 km/h 6.9 mph /  11.1 km/h 89 % 0.00 in /  0 mm
02:08 75.7 °F /  24.3 °C 72.6 °F /  22.6 °C 29.56 in /  1000.9 hPa SSW 0.8 mph /  1.3 km/h 3.5 mph /  5.6 km/h 90 % 0.00 in /  0 mm
02:13 75.6 °F /  24.2 °C 72.5 °F /  22.5 °C 29.57 in /  1001.2 hPa West 1.3 mph /  2.1 km/h 3.5 mph /  5.6 km/h 90 % 0.00 in /  0 mm
02:18 75.5 °F /  24.2 °C 72.4 °F /  22.4 °C 29.57 in /  1001.2 hPa SW 3.4 mph /  5.5 km/h 9.2 mph /  14.8 km/h 90 % 0.00 in /  0 mm
02:23 75.3 °F /  24.1 °C 72.2 °F /  22.3 °C 29.57 in /  1001.2 hPa SSW 3.7 mph /  6 km/h 8.1 mph /  13 km/h 90 % 0.00 in /  0 mm
02:28 75.3 °F /  24.1 °C 72.5 °F /  22.5 °C 29.56 in /  1000.9 hPa SW 3.2 mph /  5.1 km/h 12.7 mph /  20.4 km/h 91 % 0.00 in /  0 mm
02:33 75.1 °F /  23.9 °C 72.3 °F /  22.4 °C 29.57 in /  1001.2 hPa SW 3.5 mph /  5.6 km/h 8.0 mph /  12.9 km/h 91 % 0.00 in /  0 mm
02:38 75.1 °F /  23.9 °C 72.3 °F /  22.4 °C 29.57 in /  1001.2 hPa SW 4.7 mph /  7.6 km/h 9.2 mph /  14.8 km/h 91 % 0.00 in /  0 mm
02:43 74.9 °F /  23.8 °C 72.1 °F /  22.3 °C 29.56 in /  1000.9 hPa WSW 3.5 mph /  5.6 km/h 9.2 mph /  14.8 km/h 91 % 0.00 in /  0 mm
02:48 74.8 °F /  23.8 °C 72.0 °F /  22.2 °C 29.56 in /  1000.9 hPa WSW 1.4 mph /  2.3 km/h 6.0 mph /  9.7 km/h 91 % 0.00 in /  0 mm
02:53 74.8 °F /  23.8 °C 72.0 °F /  22.2 °C 29.56 in /  1000.9 hPa West 3.4 mph /  5.5 km/h 10.4 mph /  16.7 km/h 91 % 0.00 in /  0 mm
02:58 74.8 °F /  23.8 °C 72.0 °F /  22.2 °C 29.56 in /  1000.9 hPa SW 5.5 mph /  8.9 km/h 9.2 mph /  14.8 km/h 91 % 0.00 in /  0 mm
03:03 74.8 °F /  23.8 °C 72.0 °F /  22.2 °C 29.56 in /  1000.9 hPa WSW 2.3 mph /  3.7 km/h 3.5 mph /  5.6 km/h 91 % 0.00 in /  0 mm
03:08 74.8 °F /  23.8 °C 72.0 °F /  22.2 °C 29.56 in /  1000.9 hPa SW 2.6 mph /  4.2 km/h 6.9 mph /  11.1 km/h 91 % 0.00 in /  0 mm
03:13 74.8 °F /  23.8 °C 72.0 °F /  22.2 °C 29.57 in /  1001.2 hPa WSW 3.0 mph /  4.8 km/h 9.0 mph /  14.5 km/h 91 % 0.00 in /  0 mm
03:18 74.9 °F /  23.8 °C 72.1 °F /  22.3 °C 29.56 in /  1000.9 hPa SW 1.6 mph /  2.6 km/h 4.6 mph /  7.4 km/h 91 % 0.00 in /  0 mm
03:23 74.9 °F /  23.8 °C 72.1 °F /  22.3 °C 29.56 in /  1000.9 hPa SW 3.4 mph /  5.5 km/h 8.1 mph /  13 km/h 91 % 0.00 in /  0 mm
03:28 75.0 °F /  23.9 °C 72.2 °F /  22.3 °C 29.56 in /  1000.9 hPa WSW 2.8 mph /  4.5 km/h 7.0 mph /  11.3 km/h 91 % 0.00 in /  0 mm
03:33 75.0 °F /  23.9 °C 72.2 °F /  22.3 °C 29.56 in /  1000.9 hPa SSE 6.4 mph /  10.3 km/h 9.2 mph /  14.8 km/h 91 % 0.00 in /  0 mm
03:38 75.1 °F /  23.9 °C 72.0 °F /  22.2 °C 29.56 in /  1000.9 hPa West 4.7 mph /  7.6 km/h 8.1 mph /  13 km/h 90 % 0.00 in /  0 mm
03:43 75.0 °F /  23.9 °C 71.9 °F /  22.2 °C 29.56 in /  1000.9 hPa WSW 4.7 mph /  7.6 km/h 8.1 mph /  13 km/h 90 % 0.00 in /  0 mm
03:48 75.1 °F /  23.9 °C 72.0 °F /  22.2 °C 29.56 in /  1000.9 hPa WSW 2.7 mph /  4.3 km/h 7.0 mph /  11.3 km/h 90 % 0.00 in /  0 mm
03:53 75.1 °F /  23.9 °C 71.6 °F /  22 °C 29.56 in /  1000.9 hPa WSW 3.9 mph /  6.3 km/h 7.0 mph /  11.3 km/h 89 % 0.00 in /  0 mm
03:58 75.1 °F /  23.9 °C 71.6 °F /  22 °C 29.55 in /  1000.6 hPa SW 1.9 mph /  3.1 km/h 4.0 mph /  6.4 km/h 89 % 0.00 in /  0 mm
04:03 75.1 °F /  23.9 °C 71.6 °F /  22 °C 29.55 in /  1000.6 hPa West 1.7 mph /  2.7 km/h 8.1 mph /  13 km/h 89 % 0.00 in /  0 mm
04:08 75.0 °F /  23.9 °C 71.5 °F /  21.9 °C 29.56 in /  1000.9 hPa SW 1.6 mph /  2.6 km/h 3.5 mph /  5.6 km/h 89 % 0.00 in /  0 mm
04:13 75.0 °F /  23.9 °C 71.5 °F /  21.9 °C 29.55 in /  1000.6 hPa WSW 0.2 mph /  0.3 km/h 2.3 mph /  3.7 km/h 89 % 0.00 in /  0 mm
04:18 75.0 °F /  23.9 °C 71.2 °F /  21.8 °C 29.55 in /  1000.6 hPa WSW 4.0 mph /  6.4 km/h 5.0 mph /  8 km/h 88 % 0.00 in /  0 mm
04:24 74.9 °F /  23.8 °C 71.1 °F /  21.7 °C 29.54 in /  1000.2 hPa WSW 0.2 mph /  0.3 km/h 1.2 mph /  1.9 km/h 88 % 0.00 in /  0 mm
04:28 74.9 °F /  23.8 °C 71.1 °F /  21.7 °C 29.54 in /  1000.2 hPa WSW 0.1 mph /  0.2 km/h 3.0 mph /  4.8 km/h 88 % 0.00 in /  0 mm
04:33 74.9 °F /  23.8 °C 71.1 °F /  21.7 °C 29.54 in /  1000.2 hPa Calm   1.2 mph /  1.9 km/h 88 % 0.00 in /  0 mm
04:38 74.8 °F /  23.8 °C 71.0 °F /  21.7 °C 29.54 in /  1000.2 hPa Calm   1.2 mph /  1.9 km/h 88 % 0.00 in /  0 mm
04:43 74.8 °F /  23.8 °C 71.0 °F /  21.7 °C 29.54 in /  1000.2 hPa Calm     88 % 0.00 in /  0 mm
04:49 74.8 °F /  23.8 °C 71.0 °F /  21.7 °C 29.54 in /  1000.2 hPa Calm   1.2 mph /  1.9 km/h 88 % 0.00 in /  0 mm
04:54 74.8 °F /  23.8 °C 71.3 °F /  21.8 °C 29.54 in /  1000.2 hPa Calm   3.5 mph /  5.6 km/h 89 % 0.00 in /  0 mm
04:59 74.8 °F /  23.8 °C 71.3 °F /  21.8 °C 29.53 in /  999.9 hPa Calm     89 % 0.00 in /  0 mm
05:04 74.8 °F /  23.8 °C 71.3 °F /  21.8 °C 29.54 in /  1000.2 hPa Calm   3.5 mph /  5.6 km/h 89 % 0.00 in /  0 mm
05:09 74.7 °F /  23.7 °C 71.6 °F /  22 °C 29.54 in /  1000.2 hPa Calm   1.2 mph /  1.9 km/h 90 % 0.00 in /  0 mm
05:14 74.7 °F /  23.7 °C 71.6 °F /  22 °C 29.55 in /  1000.6 hPa Calm     90 % 0.00 in /  0 mm
05:19 74.8 °F /  23.8 °C 71.7 °F /  22.1 °C 29.55 in /  1000.6 hPa WSW 0.6 mph /  1 km/h 3.5 mph /  5.6 km/h 90 % 0.00 in /  0 mm
05:24 74.7 °F /  23.7 °C 71.6 °F /  22 °C 29.56 in /  1000.9 hPa West 2.1 mph /  3.4 km/h 3.5 mph /  5.6 km/h 90 % 0.00 in /  0 mm
05:29 74.7 °F /  23.7 °C 71.6 °F /  22 °C 29.56 in /  1000.9 hPa WSW 0.4 mph /  0.6 km/h 2.3 mph /  3.7 km/h 90 % 0.00 in /  0 mm
05:34 74.7 °F /  23.7 °C 71.9 °F /  22.2 °C 29.56 in /  1000.9 hPa SSE 0.1 mph /  0.2 km/h 1.2 mph /  1.9 km/h 91 % 0.00 in /  0 mm
05:39 74.6 °F /  23.7 °C 71.8 °F /  22.1 °C 29.56 in /  1000.9 hPa SW 0.4 mph /  0.6 km/h 3.5 mph /  5.6 km/h 91 % 0.00 in /  0 mm
05:44 74.6 °F /  23.7 °C 71.8 °F /  22.1 °C 29.55 in /  1000.6 hPa Calm     91 % 0.00 in /  0 mm
05:49 74.6 °F /  23.7 °C 71.8 °F /  22.1 °C 29.55 in /  1000.6 hPa Calm     91 % 0.00 in /  0 mm
05:54 74.5 °F /  23.6 °C 71.7 °F /  22.1 °C 29.55 in /  1000.6 hPa Calm     91 % 0.00 in /  0 mm
05:59 74.5 °F /  23.6 °C 71.7 °F /  22.1 °C 29.54 in /  1000.2 hPa Calm   1.2 mph /  1.9 km/h 91 % 0.00 in /  0 mm
06:04 74.4 °F /  23.6 °C 71.6 °F /  22 °C 29.55 in /  1000.6 hPa Calm     91 % 0.00 in /  0 mm
06:09 74.4 °F /  23.6 °C 71.6 °F /  22 °C 29.55 in /  1000.6 hPa Calm     91 % 0.00 in /  0 mm
06:14 74.4 °F /  23.6 °C 71.6 °F /  22 °C 29.54 in /  1000.2 hPa Calm     91 % 0.00 in /  0 mm
06:19 74.4 °F /  23.6 °C 71.6 °F /  22 °C 29.54 in /  1000.2 hPa SE 2.0 mph /  3.2 km/h 3.5 mph /  5.6 km/h 91 % 0.00 in /  0 mm
06:24 74.2 °F /  23.4 °C 71.4 °F /  21.9 °C 29.54 in /  1000.2 hPa SE 1.2 mph /  1.9 km/h 5.8 mph /  9.3 km/h 91 % 0.01 in /  0.25 mm
06:29 74.2 °F /  23.4 °C 71.4 °F /  21.9 °C 29.53 in /  999.9 hPa Calm   1.0 mph /  1.6 km/h 91 % 0.01 in /  0.25 mm
06:34 74.1 °F /  23.4 °C 71.3 °F /  21.8 °C 29.54 in /  1000.2 hPa Calm     91 % 0.02 in /  0.51 mm
06:39 74.0 °F /  23.3 °C 71.2 °F /  21.8 °C 29.55 in /  1000.6 hPa East 0.1 mph /  0.2 km/h 1.2 mph /  1.9 km/h 91 % 0.04 in /  1.02 mm
06:45 74.0 °F /  23.3 °C 71.2 °F /  21.8 °C 29.54 in /  1000.2 hPa Calm   1.2 mph /  1.9 km/h 91 % 0.06 in /  1.52 mm
06:50 73.8 °F /  23.2 °C 71.0 °F /  21.7 °C 29.54 in /  1000.2 hPa Calm   1.2 mph /  1.9 km/h 91 % 0.10 in /  2.54 mm
06:55 73.7 °F /  23.2 °C 71.2 °F /  21.8 °C 29.53 in /  999.9 hPa Calm     92 % 0.13 in /  3.3 mm
07:00 73.6 °F /  23.1 °C 71.1 °F /  21.7 °C 29.54 in /  1000.2 hPa Calm     92 % 0.16 in /  4.06 mm
07:05 73.5 °F /  23.1 °C 71.0 °F /  21.7 °C 29.53 in /  999.9 hPa Calm     92 % 0.19 in /  4.83 mm
07:10 73.4 °F /  23 °C 70.9 °F /  21.6 °C 29.52 in /  999.5 hPa Calm     92 % 0.23 in /  5.84 mm
07:15 73.2 °F /  22.9 °C 71.1 °F /  21.7 °C 29.54 in /  1000.2 hPa SE 0.4 mph /  0.6 km/h 3.5 mph /  5.6 km/h 93 % 0.26 in /  6.6 mm
07:20 73.0 °F /  22.8 °C 70.9 °F /  21.6 °C 29.55 in /  1000.6 hPa Calm   1.2 mph /  1.9 km/h 93 % 0.30 in /  7.62 mm
07:25 72.9 °F /  22.7 °C 70.8 °F /  21.6 °C 29.54 in /  1000.2 hPa SE 0.1 mph /  0.2 km/h 1.2 mph /  1.9 km/h 93 % 0.32 in /  8.13 mm
07:30 72.8 °F /  22.7 °C 70.7 °F /  21.5 °C 29.54 in /  1000.2 hPa Calm     93 % 0.37 in /  9.4 mm
07:35 72.7 °F /  22.6 °C 70.6 °F /  21.4 °C 29.53 in /  999.9 hPa Calm     93 % 0.39 in /  9.91 mm
07:40 72.6 °F /  22.6 °C 70.5 °F /  21.4 °C 29.53 in /  999.9 hPa Calm     93 % 0.42 in /  10.67 mm
07:41 72.6 °F /  22.6 °C 70.5 °F /  21.4 °C 29.52 in /  999.5 hPa Calm     93 % 0.41 in /  10.41 mm
07:46 72.6 °F /  22.6 °C 70.8 °F /  21.6 °C 29.53 in /  999.9 hPa Calm     94 % 0.43 in /  10.92 mm
07:51 72.5 °F /  22.5 °C 70.7 °F /  21.5 °C 29.53 in /  999.9 hPa Calm   1.2 mph /  1.9 km/h 94 % 0.42 in /  10.67 mm
07:56 72.4 °F /  22.4 °C 70.6 °F /  21.4 °C 29.53 in /  999.9 hPa NW 0.8 mph /  1.3 km/h 2.3 mph /  3.7 km/h 94 % 0.43 in /  10.92 mm
08:01 72.3 °F /  22.4 °C 70.5 °F /  21.4 °C 29.53 in /  999.9 hPa NNW 0.7 mph /  1.1 km/h 2.3 mph /  3.7 km/h 94 % 0.43 in /  10.92 mm
08:06 72.3 °F /  22.4 °C 70.5 °F /  21.4 °C 29.54 in /  1000.2 hPa WSW 0.6 mph /  1 km/h 2.3 mph /  3.7 km/h 94 % 0.44 in /  11.18 mm
08:11 72.2 °F /  22.3 °C 70.4 °F /  21.3 °C 29.55 in /  1000.6 hPa Calm   1.2 mph /  1.9 km/h 94 % 0.45 in /  11.43 mm
08:16 72.1 °F /  22.3 °C 70.3 °F /  21.3 °C 29.54 in /  1000.2 hPa Calm   1.0 mph /  1.6 km/h 94 % 0.45 in /  11.43 mm
08:21 72.1 °F /  22.3 °C 70.3 °F /  21.3 °C 29.55 in /  1000.6 hPa WSW 1.8 mph /  2.9 km/h 3.5 mph /  5.6 km/h 94 % 0.45 in /  11.43 mm
08:26 72.0 °F /  22.2 °C 70.2 °F /  21.2 °C 29.55 in /  1000.6 hPa WNW 0.6 mph /  1 km/h 5.0 mph /  8 km/h 94 % 0.45 in /  11.43 mm
08:31 72.0 °F /  22.2 °C 70.2 °F /  21.2 °C 29.55 in /  1000.6 hPa NW 0.5 mph /  0.8 km/h 3.5 mph /  5.6 km/h 94 % 0.43 in /  10.92 mm
08:36 71.9 °F /  22.2 °C 70.4 °F /  21.3 °C 29.54 in /  1000.2 hPa NW 1.1 mph /  1.8 km/h 3.5 mph /  5.6 km/h 95 % 0.42 in /  10.67 mm
08:41 71.9 °F /  22.2 °C 70.4 °F /  21.3 °C 29.54 in /  1000.2 hPa NW 0.7 mph /  1.1 km/h 2.3 mph /  3.7 km/h 95 % 0.42 in /  10.67 mm
08:46 71.8 °F /  22.1 °C 70.3 °F /  21.3 °C 29.54 in /  1000.2 hPa NW 0.2 mph /  0.3 km/h 2.3 mph /  3.7 km/h 95 % 0.41 in /  10.41 mm
08:51 71.7 °F /  22.1 °C 70.2 °F /  21.2 °C 29.54 in /  1000.2 hPa NW 0.1 mph /  0.2 km/h 1.0 mph /  1.6 km/h 95 % 0.41 in /  10.41 mm
08:56 71.7 °F /  22.1 °C 70.2 °F /  21.2 °C 29.55 in /  1000.6 hPa NW 1.0 mph /  1.6 km/h 3.5 mph /  5.6 km/h 95 % 0.39 in /  9.91 mm
09:01 71.8 °F /  22.1 °C 70.3 °F /  21.3 °C 29.55 in /  1000.6 hPa WNW 0.5 mph /  0.8 km/h 2.3 mph /  3.7 km/h 95 % 0.39 in /  9.91 mm
09:06 71.9 °F /  22.2 °C 70.4 °F /  21.3 °C 29.56 in /  1000.9 hPa WSW 0.2 mph /  0.3 km/h 1.2 mph /  1.9 km/h 95 % 0.37 in /  9.4 mm
09:11 71.9 °F /  22.2 °C 70.4 °F /  21.3 °C 29.56 in /  1000.9 hPa Calm   3.5 mph /  5.6 km/h 95 % 0.35 in /  8.89 mm
09:16 72.0 °F /  22.2 °C 70.5 °F /  21.4 °C 29.55 in /  1000.6 hPa Calm     95 % 0.34 in /  8.64 mm
09:21 72.0 °F /  22.2 °C 70.5 °F /  21.4 °C 29.55 in /  1000.6 hPa Calm     95 % 0.32 in /  8.13 mm
09:26 72.1 °F /  22.3 °C 70.9 °F /  21.6 °C 29.55 in /  1000.6 hPa SW 0.6 mph /  1 km/h 3.0 mph /  4.8 km/h 96 % 0.30 in /  7.62 mm
09:31 72.2 °F /  22.3 °C 71.0 °F /  21.7 °C 29.55 in /  1000.6 hPa West 0.9 mph /  1.4 km/h 2.0 mph /  3.2 km/h 96 % 0.28 in /  7.11 mm
09:36 72.3 °F /  22.4 °C 71.1 °F /  21.7 °C 29.55 in /  1000.6 hPa West 1.5 mph /  2.4 km/h 3.5 mph /  5.6 km/h 96 % 0.26 in /  6.6 mm
09:41 72.5 °F /  22.5 °C 71.3 °F /  21.8 °C 29.56 in /  1000.9 hPa WNW 1.2 mph /  1.9 km/h 2.3 mph /  3.7 km/h 96 % 0.25 in /  6.35 mm
09:47 72.8 °F /  22.7 °C 71.6 °F /  22 °C 29.57 in /  1001.2 hPa SW 2.2 mph /  3.5 km/h 5.8 mph /  9.3 km/h 96 % 0.23 in /  5.84 mm
09:52 73.2 °F /  22.9 °C 72.3 °F /  22.4 °C 29.57 in /  1001.2 hPa WSW 2.4 mph /  3.9 km/h 6.0 mph /  9.7 km/h 97 % 0.21 in /  5.33 mm
09:57 73.7 °F /  23.2 °C 72.8 °F /  22.7 °C 29.57 in /  1001.2 hPa WSW 3.0 mph /  4.8 km/h 5.8 mph /  9.3 km/h 97 % 0.20 in /  5.08 mm
10:02 74.0 °F /  23.3 °C 73.1 °F /  22.8 °C 29.57 in /  1001.2 hPa WNW 3.9 mph /  6.3 km/h 8.1 mph /  13 km/h 97 % 0.17 in /  4.32 mm
10:07 74.2 °F /  23.4 °C 73.0 °F /  22.8 °C 29.57 in /  1001.2 hPa WSW 1.6 mph /  2.6 km/h 8.1 mph /  13 km/h 96 % 0.15 in /  3.81 mm
10:12 74.6 °F /  23.7 °C 73.7 °F /  23.2 °C 29.57 in /  1001.2 hPa West 1.1 mph /  1.8 km/h 3.5 mph /  5.6 km/h 97 % 0.12 in /  3.05 mm
10:17 75.4 °F /  24.1 °C 74.5 °F /  23.6 °C 29.58 in /  1001.6 hPa WNW 1.5 mph /  2.4 km/h 3.5 mph /  5.6 km/h 97 % 0.11 in /  2.79 mm
10:22 75.9 °F /  24.4 °C 75.0 °F /  23.9 °C 29.58 in /  1001.6 hPa WSW 2.8 mph /  4.5 km/h 4.6 mph /  7.4 km/h 97 % 0.09 in /  2.29 mm
10:27 76.2 °F /  24.6 °C 75.0 °F /  23.9 °C 29.58 in /  1001.6 hPa SW 2.6 mph /  4.2 km/h 5.8 mph /  9.3 km/h 96 % 0.07 in /  1.78 mm
10:32 76.5 °F /  24.7 °C 75.0 °F /  23.9 °C 29.58 in /  1001.6 hPa West 4.1 mph /  6.6 km/h 5.8 mph /  9.3 km/h 95 % 0.06 in /  1.52 mm
10:37 77.0 °F /  25 °C 75.5 °F /  24.2 °C 29.58 in /  1001.6 hPa SW 5.3 mph /  8.5 km/h 8.1 mph /  13 km/h 95 % 0.04 in /  1.02 mm
10:42 77.5 °F /  25.3 °C 75.6 °F /  24.2 °C 29.58 in /  1001.6 hPa WNW 1.0 mph /  1.6 km/h 5.8 mph /  9.3 km/h 94 % 0.03 in /  0.76 mm
10:47 78.1 °F /  25.6 °C 75.9 °F /  24.4 °C 29.58 in /  1001.6 hPa West 1.3 mph /  2.1 km/h 3.5 mph /  5.6 km/h 93 % 0.02 in /  0.51 mm
10:52 78.8 °F /  26 °C 76.6 °F /  24.8 °C 29.58 in /  1001.6 hPa SW 4.8 mph /  7.7 km/h 8.1 mph /  13 km/h 93 % 0.01 in /  0.25 mm
10:57 79.5 °F /  26.4 °C 77.0 °F /  25 °C 29.58 in /  1001.6 hPa SW 5.3 mph /  8.5 km/h 6.9 mph /  11.1 km/h 92 % 0.00 in /  0 mm
11:02 80.1 °F /  26.7 °C 76.9 °F /  24.9 °C 29.59 in /  1001.9 hPa SW 3.1 mph /  5 km/h 6.9 mph /  11.1 km/h 90 % 0.00 in /  0 mm
11:07 80.5 °F /  26.9 °C 76.3 °F /  24.6 °C 29.59 in /  1001.9 hPa WNW 5.6 mph /  9 km/h 9.2 mph /  14.8 km/h 87 % 0.00 in /  0 mm
11:12 81.1 °F /  27.3 °C 77.5 °F /  25.3 °C 29.59 in /  1001.9 hPa NNE 1.2 mph /  1.9 km/h 4.6 mph /  7.4 km/h 89 % 0.00 in /  0 mm
11:17 81.5 °F /  27.5 °C 76.9 °F /  24.9 °C 29.59 in /  1001.9 hPa West 3.9 mph /  6.3 km/h 6.9 mph /  11.1 km/h 86 % 0.00 in /  0 mm
11:22 81.9 °F /  27.7 °C 77.3 °F /  25.2 °C 29.59 in /  1001.9 hPa WSW 5.4 mph /  8.7 km/h 10.4 mph /  16.7 km/h 86 % 0.00 in /  0 mm
11:27 82.3 °F /  27.9 °C 77.3 °F /  25.2 °C 29.59 in /  1001.9 hPa SW 1.2 mph /  1.9 km/h 4.6 mph /  7.4 km/h 85 % 0.00 in /  0 mm
11:32 82.8 °F /  28.2 °C 77.5 °F /  25.3 °C 29.60 in /  1002.3 hPa WSW 4.4 mph /  7.1 km/h 4.6 mph /  7.4 km/h 84 % 0.00 in /  0 mm
11:38 83.1 °F /  28.4 °C 77.0 °F /  25 °C 29.60 in /  1002.3 hPa West 4.7 mph /  7.6 km/h 6.9 mph /  11.1 km/h 82 % 0.00 in /  0 mm
11:43 83.4 °F /  28.6 °C 76.6 °F /  24.8 °C 29.61 in /  1002.6 hPa NW 3.1 mph /  5 km/h 6.9 mph /  11.1 km/h 80 % 0.00 in /  0 mm
11:48 83.6 °F /  28.7 °C 76.8 °F /  24.9 °C 29.61 in /  1002.6 hPa WNW 6.5 mph /  10.5 km/h 7.0 mph /  11.3 km/h 80 % 0.00 in /  0 mm
11:53 84.0 °F /  28.9 °C 77.2 °F /  25.1 °C 29.60 in /  1002.3 hPa SW 7.2 mph /  11.6 km/h 12.0 mph /  19.3 km/h 80 % 0.00 in /  0 mm
11:58 84.2 °F /  29 °C 76.2 °F /  24.6 °C 29.61 in /  1002.6 hPa WNW 2.0 mph /  3.2 km/h 4.6 mph /  7.4 km/h 77 % 0.00 in /  0 mm
12:03 84.5 °F /  29.2 °C 76.1 °F /  24.5 °C 29.61 in /  1002.6 hPa SW 5.1 mph /  8.2 km/h 6.9 mph /  11.1 km/h 76 % 0.00 in /  0 mm
12:08 84.7 °F /  29.3 °C 76.7 °F /  24.8 °C 29.61 in /  1002.6 hPa WNW 5.0 mph /  8 km/h 8.1 mph /  13 km/h 77 % 0.01 in /  0.25 mm
12:13 85.0 °F /  29.4 °C 76.2 °F /  24.6 °C 29.62 in /  1002.9 hPa WNW 3.5 mph /  5.6 km/h 4.6 mph /  7.4 km/h 75 % 0.01 in /  0.25 mm
12:18 85.3 °F /  29.6 °C 76.9 °F /  24.9 °C 29.62 in /  1002.9 hPa SW 3.2 mph /  5.1 km/h 9.2 mph /  14.8 km/h 76 % 0.01 in /  0.25 mm
12:23 85.5 °F /  29.7 °C 73.7 °F /  23.2 °C 29.62 in /  1002.9 hPa West 4.4 mph /  7.1 km/h 9.2 mph /  14.8 km/h 68 % 0.01 in /  0.25 mm
12:28 85.7 °F /  29.8 °C 74.8 °F /  23.8 °C 29.62 in /  1002.9 hPa North 2.4 mph /  3.9 km/h 5.8 mph /  9.3 km/h 70 % 0.01 in /  0.25 mm
12:33 85.9 °F /  29.9 °C 74.5 °F /  23.6 °C 29.62 in /  1002.9 hPa WNW 5.4 mph /  8.7 km/h 9.0 mph /  14.5 km/h 69 % 0.01 in /  0.25 mm
12:38 86.0 °F /  30 °C 71.9 °F /  22.2 °C 29.63 in /  1003.3 hPa NW 5.5 mph /  8.9 km/h 9.2 mph /  14.8 km/h 63 % 0.01 in /  0.25 mm
12:43 86.1 °F /  30.1 °C 70.6 °F /  21.4 °C 29.63 in /  1003.3 hPa WSW 4.2 mph /  6.8 km/h 7.0 mph /  11.3 km/h 60 % 0.01 in /  0.25 mm
12:48 86.2 °F /  30.1 °C 69.7 °F /  20.9 °C 29.63 in /  1003.3 hPa WNW 5.4 mph /  8.7 km/h 11.5 mph /  18.5 km/h 58 % 0.01 in /  0.25 mm
12:53 86.5 °F /  30.3 °C 68.9 °F /  20.5 °C 29.63 in /  1003.3 hPa East 2.8 mph /  4.5 km/h 8.1 mph /  13 km/h 56 % 0.01 in /  0.25 mm
12:59 86.7 °F /  30.4 °C 70.2 °F /  21.2 °C 29.64 in /  1003.6 hPa WSW 6.4 mph /  10.3 km/h 10.4 mph /  16.7 km/h 58 % 0.01 in /  0.25 mm
13:04 86.9 °F /  30.5 °C 69.8 °F /  21 °C 29.64 in /  1003.6 hPa West 5.7 mph /  9.2 km/h 13.8 mph /  22.2 km/h 57 % 0.01 in /  0.25 mm
13:09 87.1 °F /  30.6 °C 70.5 °F /  21.4 °C 29.64 in /  1003.6 hPa WSW 3.0 mph /  4.8 km/h 8.0 mph /  12.9 km/h 58 % 0.00 in /  0 mm
13:14 87.2 °F /  30.7 °C 67.4 °F /  19.7 °C 29.64 in /  1003.6 hPa SW 8.8 mph /  14.2 km/h 10.4 mph /  16.7 km/h 52 % 0.00 in /  0 mm
13:19 87.3 °F /  30.7 °C 67.0 °F /  19.4 °C 29.65 in /  1003.9 hPa WNW 8.3 mph /  13.4 km/h 15.0 mph /  24.1 km/h 51 % 0.00 in /  0 mm
13:24 87.3 °F /  30.7 °C 69.2 °F /  20.7 °C 29.65 in /  1003.9 hPa WNW 3.8 mph /  6.1 km/h 9.2 mph /  14.8 km/h 55 % 0.00 in /  0 mm
13:29 87.4 °F /  30.8 °C 69.3 °F /  20.7 °C 29.65 in /  1003.9 hPa WSW 3.7 mph /  6 km/h 10.0 mph /  16.1 km/h 55 % 0.00 in /  0 mm
13:34 87.4 °F /  30.8 °C 66.5 °F /  19.2 °C 29.65 in /  1003.9 hPa North 6.9 mph /  11.1 km/h 11.5 mph /  18.5 km/h 50 % 0.00 in /  0 mm
13:39 87.6 °F /  30.9 °C 67.2 °F /  19.6 °C 29.65 in /  1003.9 hPa NE 4.4 mph /  7.1 km/h 15.0 mph /  24.1 km/h 51 % 0.00 in /  0 mm
13:44 87.7 °F /  30.9 °C 66.8 °F /  19.3 °C 29.66 in /  1004.3 hPa WSW 2.1 mph /  3.4 km/h 9.2 mph /  14.8 km/h 50 % 0.00 in /  0 mm
13:49 87.9 °F /  31.1 °C 68.1 °F /  20.1 °C 29.66 in /  1004.3 hPa WSW 5.4 mph /  8.7 km/h 11.0 mph /  17.7 km/h 52 % 0.00 in /  0 mm
13:54 88.0 °F /  31.1 °C 65.2 °F /  18.4 °C 29.66 in /  1004.3 hPa WSW 7.9 mph /  12.7 km/h 11.5 mph /  18.5 km/h 47 % 0.00 in /  0 mm
13:59 88.0 °F /  31.1 °C 65.8 °F /  18.8 °C 29.66 in /  1004.3 hPa West 3.5 mph /  5.6 km/h 11.5 mph /  18.5 km/h 48 % 0.00 in /  0 mm
14:04 88.0 °F /  31.1 °C 66.4 °F /  19.1 °C 29.66 in /  1004.3 hPa NW 4.8 mph /  7.7 km/h 9.2 mph /  14.8 km/h 49 % 0.00 in /  0 mm
14:09 88.2 °F /  31.2 °C 66.6 °F /  19.2 °C 29.66 in /  1004.3 hPa WNW 5.3 mph /  8.5 km/h 8.1 mph /  13 km/h 49 % 0.00 in /  0 mm
14:14 88.4 °F /  31.3 °C 67.4 °F /  19.7 °C 29.67 in /  1004.6 hPa WSW 4.8 mph /  7.7 km/h 7.0 mph /  11.3 km/h 50 % 0.00 in /  0 mm
14:17 88.5 °F /  31.4 °C 67.5 °F /  19.7 °C 29.67 in /  1004.6 hPa NW 4.3 mph /  6.9 km/h 12.0 mph /  19.3 km/h 50 % 0.00 in /  0 mm
14:20 88.6 °F /  31.4 °C 67.0 °F /  19.4 °C 29.67 in /  1004.6 hPa WSW 4.1 mph /  6.6 km/h 8.1 mph /  13 km/h 49 % 0.00 in /  0 mm
14:25 88.6 °F /  31.4 °C 64.5 °F /  18.1 °C 29.67 in /  1004.6 hPa SW 5.5 mph /  8.9 km/h 11.0 mph /  17.7 km/h 45 % 0.00 in /  0 mm
14:30 88.6 °F /  31.4 °C 65.2 °F /  18.4 °C 29.67 in /  1004.6 hPa WSW 5.3 mph /  8.5 km/h 9.2 mph /  14.8 km/h 46 % 0.00 in /  0 mm
14:31 88.6 °F /  31.4 °C 65.2 °F /  18.4 °C 29.67 in /  1004.6 hPa SW 5.3 mph /  8.5 km/h 9.2 mph /  14.8 km/h 46 % 0.00 in /  0 mm
14:36 88.6 °F /  31.4 °C 65.8 °F /  18.8 °C 29.67 in /  1004.6 hPa NW 5.9 mph /  9.5 km/h 13.8 mph /  22.2 km/h 47 % 0.00 in /  0 mm
14:41 88.5 °F /  31.4 °C 65.1 °F /  18.4 °C 29.67 in /  1004.6 hPa West 1.8 mph /  2.9 km/h 3.5 mph /  5.6 km/h 46 % 0.00 in /  0 mm
14:46 88.4 °F /  31.3 °C 64.4 °F /  18 °C 29.67 in /  1004.6 hPa West 7.4 mph /  11.9 km/h 15.0 mph /  24.1 km/h 45 % 0.00 in /  0 mm
14:51 88.4 °F /  31.3 °C 64.4 °F /  18 °C 29.67 in /  1004.6 hPa West 3.5 mph /  5.6 km/h 7.0 mph /  11.3 km/h 45 % 0.00 in /  0 mm
14:56 88.4 °F /  31.3 °C 65.0 °F /  18.3 °C 29.68 in /  1005 hPa WNW 3.2 mph /  5.1 km/h 6.9 mph /  11.1 km/h 46 % 0.00 in /  0 mm
15:01 88.5 °F /  31.4 °C 65.7 °F /  18.7 °C 29.67 in /  1004.6 hPa WNW 3.7 mph /  6 km/h 10.0 mph /  16.1 km/h 47 % 0.00 in /  0 mm
15:06 88.5 °F /  31.4 °C 63.8 °F /  17.7 °C 29.68 in /  1005 hPa WNW 5.1 mph /  8.2 km/h 10.0 mph /  16.1 km/h 44 % 0.00 in /  0 mm
15:11 88.5 °F /  31.4 °C 63.1 °F /  17.3 °C 29.68 in /  1005 hPa West 6.8 mph /  10.9 km/h 12.7 mph /  20.4 km/h 43 % 0.00 in /  0 mm
15:16 88.5 °F /  31.4 °C 64.4 °F /  18 °C 29.68 in /  1005 hPa SW 6.3 mph /  10.1 km/h 12.7 mph /  20.4 km/h 45 % 0.00 in /  0 mm
15:21 88.2 °F /  31.2 °C 64.2 °F /  17.9 °C 29.69 in /  1005.3 hPa NNW 6.6 mph /  10.6 km/h 11.5 mph /  18.5 km/h 45 % 0.00 in /  0 mm
15:26 88.0 °F /  31.1 °C 63.4 °F /  17.4 °C 29.69 in /  1005.3 hPa WSW 5.1 mph /  8.2 km/h 15.0 mph /  24.1 km/h 44 % 0.00 in /  0 mm
15:31 87.8 °F /  31 °C 62.5 °F /  16.9 °C 29.69 in /  1005.3 hPa SW 4.5 mph /  7.2 km/h 16.0 mph /  25.7 km/h 43 % 0.00 in /  0 mm
15:36 87.7 °F /  30.9 °C 63.1 °F /  17.3 °C 29.69 in /  1005.3 hPa NNE 5.6 mph /  9 km/h 8.1 mph /  13 km/h 44 % 0.00 in /  0 mm
15:39 87.7 °F /  30.9 °C 61.8 °F /  16.6 °C 29.69 in /  1005.3 hPa SW 7.5 mph /  12.1 km/h 11.5 mph /  18.5 km/h 42 % 0.00 in /  0 mm
15:44 87.8 °F /  31 °C 63.2 °F /  17.3 °C 29.69 in /  1005.3 hPa SW 4.5 mph /  7.2 km/h 8.0 mph /  12.9 km/h 44 % 0.00 in /  0 mm
15:49 87.9 °F /  31.1 °C 63.9 °F /  17.7 °C 29.69 in /  1005.3 hPa West 4.8 mph /  7.7 km/h 12.0 mph /  19.3 km/h 45 % 0.00 in /  0 mm
15:54 88.0 °F /  31.1 °C 64.6 °F /  18.1 °C 29.69 in /  1005.3 hPa WNW 2.0 mph /  3.2 km/h 8.1 mph /  13 km/h 46 % 0.00 in /  0 mm
15:59 88.0 °F /  31.1 °C 62.0 °F /  16.7 °C 29.70 in /  1005.6 hPa West 4.6 mph /  7.4 km/h 9.2 mph /  14.8 km/h 42 % 0.00 in /  0 mm
16:00 88.0 °F /  31.1 °C 62.0 °F /  16.7 °C 29.70 in /  1005.6 hPa West 6.7 mph /  10.8 km/h 9.2 mph /  14.8 km/h 42 % 0.00 in /  0 mm
16:05 87.9 °F /  31.1 °C 62.6 °F /  17 °C 29.70 in /  1005.6 hPa West 4.9 mph /  7.9 km/h 12.0 mph /  19.3 km/h 43 % 0.00 in /  0 mm
16:10 87.9 °F /  31.1 °C 61.9 °F /  16.6 °C 29.70 in /  1005.6 hPa WNW 6.7 mph /  10.8 km/h 12.7 mph /  20.4 km/h 42 % 0.00 in /  0 mm
16:15 87.8 °F /  31 °C 62.5 °F /  16.9 °C 29.70 in /  1005.6 hPa West 8.4 mph /  13.5 km/h 13.8 mph /  22.2 km/h 43 % 0.00 in /  0 mm
16:20 87.6 °F /  30.9 °C 61.7 °F /  16.5 °C 29.71 in /  1006 hPa North 2.8 mph /  4.5 km/h 6.9 mph /  11.1 km/h 42 % 0.00 in /  0 mm
16:26 87.6 °F /  30.9 °C 62.3 °F /  16.8 °C 29.71 in /  1006 hPa SW 3.0 mph /  4.8 km/h 6.0 mph /  9.7 km/h 43 % 0.00 in /  0 mm
16:31 87.4 °F /  30.8 °C 60.8 °F /  16 °C 29.72 in /  1006.3 hPa West 3.0 mph /  4.8 km/h 12.0 mph /  19.3 km/h 41 % 0.00 in /  0 mm
16:36 87.1 °F /  30.6 °C 61.9 °F /  16.6 °C 29.72 in /  1006.3 hPa West 6.0 mph /  9.7 km/h 9.0 mph /  14.5 km/h 43 % 0.00 in /  0 mm
16:41 86.8 °F /  30.4 °C 62.3 °F /  16.8 °C 29.72 in /  1006.3 hPa WNW 2.0 mph /  3.2 km/h 6.0 mph /  9.7 km/h 44 % 0.00 in /  0 mm
16:46 86.5 °F /  30.3 °C 62.7 °F /  17.1 °C 29.72 in /  1006.3 hPa WNW 3.0 mph /  4.8 km/h 9.0 mph /  14.5 km/h 45 % 0.00 in /  0 mm
16:51 86.0 °F /  30 °C 61.5 °F /  16.4 °C 29.72 in /  1006.3 hPa WNW 3.0 mph /  4.8 km/h 12.0 mph /  19.3 km/h 44 % 0.00 in /  0 mm
16:56 85.6 °F /  29.8 °C 60.5 °F /  15.8 °C 29.72 in /  1006.3 hPa WNW 5.0 mph /  8 km/h 15.0 mph /  24.1 km/h 43 % 0.00 in /  0 mm
17:01 85.3 °F /  29.6 °C 62.2 °F /  16.8 °C 29.73 in /  1006.7 hPa SW 2.6 mph /  4.2 km/h 4.6 mph /  7.4 km/h 46 % 0.00 in /  0 mm
17:06 85.1 °F /  29.5 °C 61.4 °F /  16.3 °C 29.73 in /  1006.7 hPa SW 5.7 mph /  9.2 km/h 10.4 mph /  16.7 km/h 45 % 0.00 in /  0 mm
17:11 84.9 °F /  29.4 °C 61.2 °F /  16.2 °C 29.73 in /  1006.7 hPa West 4.8 mph /  7.7 km/h 8.1 mph /  13 km/h 45 % 0.00 in /  0 mm
17:16 84.7 °F /  29.3 °C 61.0 °F /  16.1 °C 29.73 in /  1006.7 hPa WSW 4.9 mph /  7.9 km/h 11.0 mph /  17.7 km/h 45 % 0.00 in /  0 mm
17:21 84.4 °F /  29.1 °C 60.7 °F /  15.9 °C 29.73 in /  1006.7 hPa SW 5.8 mph /  9.3 km/h 11.5 mph /  18.5 km/h 45 % 0.00 in /  0 mm
17:26 84.0 °F /  28.9 °C 61.6 °F /  16.4 °C 29.74 in /  1007 hPa WSW 4.4 mph /  7.1 km/h 7.0 mph /  11.3 km/h 47 % 0.00 in /  0 mm
17:31 83.5 °F /  28.6 °C 61.1 °F /  16.2 °C 29.74 in /  1007 hPa WSW 1.1 mph /  1.8 km/h 8.1 mph /  13 km/h 47 % 0.00 in /  0 mm
17:36 83.2 °F /  28.4 °C 61.5 °F /  16.4 °C 29.74 in /  1007 hPa WNW 3.5 mph /  5.6 km/h 4.6 mph /  7.4 km/h 48 % 0.00 in /  0 mm
17:41 83.0 °F /  28.3 °C 61.3 °F /  16.3 °C 29.74 in /  1007 hPa West 0.7 mph /  1.1 km/h 3.5 mph /  5.6 km/h 48 % 0.00 in /  0 mm
17:46 82.9 °F /  28.3 °C 62.4 °F /  16.9 °C 29.74 in /  1007 hPa WNW 2.9 mph /  4.7 km/h 5.0 mph /  8 km/h 50 % 0.00 in /  0 mm
17:51 82.7 °F /  28.2 °C 61.0 °F /  16.1 °C 29.74 in /  1007 hPa WNW 1.5 mph /  2.4 km/h 3.5 mph /  5.6 km/h 48 % 0.00 in /  0 mm
17:56 82.7 °F /  28.2 °C 61.0 °F /  16.1 °C 29.74 in /  1007 hPa West 5.7 mph /  9.2 km/h 9.2 mph /  14.8 km/h 48 % 0.00 in /  0 mm
18:01 82.7 °F /  28.2 °C 59.2 °F /  15.1 °C 29.74 in /  1007 hPa WSW 4.7 mph /  7.6 km/h 8.1 mph /  13 km/h 45 % 0.00 in /  0 mm
18:06 82.6 °F /  28.1 °C 60.3 °F /  15.7 °C 29.74 in /  1007 hPa WNW 3.5 mph /  5.6 km/h 4.6 mph /  7.4 km/h 47 % 0.00 in /  0 mm
18:11 82.6 °F /  28.1 °C 59.7 °F /  15.4 °C 29.74 in /  1007 hPa WNW 2.6 mph /  4.2 km/h 3.5 mph /  5.6 km/h 46 % 0.00 in /  0 mm
18:16 82.6 °F /  28.1 °C 59.7 °F /  15.4 °C 29.75 in /  1007.3 hPa WNW 4.3 mph /  6.9 km/h 6.9 mph /  11.1 km/h 46 % 0.00 in /  0 mm
18:21 82.6 °F /  28.1 °C 61.5 °F /  16.4 °C 29.74 in /  1007 hPa West 1.1 mph /  1.8 km/h 3.5 mph /  5.6 km/h 49 % 0.00 in /  0 mm
18:26 82.5 °F /  28.1 °C 60.8 °F /  16 °C 29.75 in /  1007.3 hPa West 1.0 mph /  1.6 km/h 2.3 mph /  3.7 km/h 48 % 0.00 in /  0 mm
18:31 82.5 °F /  28.1 °C 60.8 °F /  16 °C 29.75 in /  1007.3 hPa WNW 2.3 mph /  3.7 km/h 7.0 mph /  11.3 km/h 48 % 0.00 in /  0 mm
18:32 82.5 °F /  28.1 °C 60.8 °F /  16 °C 29.75 in /  1007.3 hPa NW 3.1 mph /  5 km/h 6.9 mph /  11.1 km/h 48 % 0.00 in /  0 mm
18:38 82.5 °F /  28.1 °C 61.4 °F /  16.3 °C 29.75 in /  1007.3 hPa SW 3.0 mph /  4.8 km/h 6.0 mph /  9.7 km/h 49 % 0.00 in /  0 mm
18:42 82.4 °F /  28 °C 60.1 °F /  15.6 °C 29.75 in /  1007.3 hPa SW 0.2 mph /  0.3 km/h 3.5 mph /  5.6 km/h 47 % 0.00 in /  0 mm
18:48 82.3 °F /  27.9 °C 60.6 °F /  15.9 °C 29.75 in /  1007.3 hPa WNW 1.1 mph /  1.8 km/h 4.6 mph /  7.4 km/h 48 % 0.00 in /  0 mm
18:53 82.2 °F /  27.9 °C 60.0 °F /  15.6 °C 29.75 in /  1007.3 hPa SW 2.0 mph /  3.2 km/h 2.0 mph /  3.2 km/h 47 % 0.00 in /  0 mm
18:58 82.1 °F /  27.8 °C 59.9 °F /  15.5 °C 29.76 in /  1007.7 hPa WSW 3.8 mph /  6.1 km/h 7.0 mph /  11.3 km/h 47 % 0.00 in /  0 mm
19:03 82.0 °F /  27.8 °C 59.8 °F /  15.4 °C 29.76 in /  1007.7 hPa WSW 2.2 mph /  3.5 km/h 4.6 mph /  7.4 km/h 47 % 0.00 in /  0 mm
19:08 81.9 °F /  27.7 °C 60.3 °F /  15.7 °C 29.76 in /  1007.7 hPa SW 0.3 mph /  0.5 km/h 2.0 mph /  3.2 km/h 48 % 0.00 in /  0 mm
19:13 81.8 °F /  27.7 °C 60.2 °F /  15.7 °C 29.76 in /  1007.7 hPa WSW 1.8 mph /  2.9 km/h 3.5 mph /  5.6 km/h 48 % 0.00 in /  0 mm
19:18 81.8 °F /  27.7 °C 60.8 °F /  16 °C 29.76 in /  1007.7 hPa WNW 0.9 mph /  1.4 km/h 2.3 mph /  3.7 km/h 49 % 0.00 in /  0 mm
19:23 81.6 °F /  27.6 °C 61.7 °F /  16.5 °C 29.76 in /  1007.7 hPa West 1.5 mph /  2.4 km/h 3.5 mph /  5.6 km/h 51 % 0.00 in /  0 mm
19:28 81.5 °F /  27.5 °C 62.2 °F /  16.8 °C 29.76 in /  1007.7 hPa WNW 0.3 mph /  0.5 km/h 2.3 mph /  3.7 km/h 52 % 0.00 in /  0 mm
19:33 81.3 °F /  27.4 °C 61.4 °F /  16.3 °C 29.76 in /  1007.7 hPa WSW 1.9 mph /  3.1 km/h 3.5 mph /  5.6 km/h 51 % 0.00 in /  0 mm
19:38 81.2 °F /  27.3 °C 62.4 °F /  16.9 °C 29.76 in /  1007.7 hPa Calm   1.2 mph /  1.9 km/h 53 % 0.00 in /  0 mm
19:43 81.0 °F /  27.2 °C 62.8 °F /  17.1 °C 29.77 in /  1008 hPa Calm     54 % 0.00 in /  0 mm
19:48 80.8 °F /  27.1 °C 63.1 °F /  17.3 °C 29.77 in /  1008 hPa WSW 0.2 mph /  0.3 km/h 1.2 mph /  1.9 km/h 55 % 0.00 in /  0 mm
19:53 80.5 °F /  26.9 °C 63.4 °F /  17.4 °C 29.77 in /  1008 hPa Calm   1.2 mph /  1.9 km/h 56 % 0.00 in /  0 mm
19:58 80.2 °F /  26.8 °C 63.6 °F /  17.6 °C 29.77 in /  1008 hPa Calm     57 % 0.00 in /  0 mm
20:03 79.8 °F /  26.6 °C 64.2 °F /  17.9 °C 29.77 in /  1008 hPa Calm     59 % 0.00 in /  0 mm
20:08 79.4 °F /  26.3 °C 64.8 °F /  18.2 °C 29.78 in /  1008.4 hPa Calm     61 % 0.00 in /  0 mm
20:13 79.0 °F /  26.1 °C 64.9 °F /  18.3 °C 29.78 in /  1008.4 hPa Calm     62 % 0.00 in /  0 mm
20:18 78.6 °F /  25.9 °C 63.6 °F /  17.6 °C 29.78 in /  1008.4 hPa Calm     60 % 0.00 in /  0 mm
20:24 78.2 °F /  25.7 °C 64.1 °F /  17.8 °C 29.78 in /  1008.4 hPa Calm   1.2 mph /  1.9 km/h 62 % 0.00 in /  0 mm
20:29 77.7 °F /  25.4 °C 64.5 °F /  18.1 °C 29.78 in /  1008.4 hPa Calm     64 % 0.00 in /  0 mm
20:34 77.3 °F /  25.2 °C 64.2 °F /  17.9 °C 29.78 in /  1008.4 hPa Calm     64 % 0.00 in /  0 mm
20:39 76.9 °F /  24.9 °C 64.2 °F /  17.9 °C 29.78 in /  1008.4 hPa Calm     65 % 0.00 in /  0 mm
20:44 76.6 °F /  24.8 °C 63.5 °F /  17.5 °C 29.78 in /  1008.4 hPa Calm     64 % 0.00 in /  0 mm
20:49 76.2 °F /  24.6 °C 63.1 °F /  17.3 °C 29.78 in /  1008.4 hPa Calm   1.2 mph /  1.9 km/h 64 % 0.00 in /  0 mm
20:54 75.8 °F /  24.3 °C 62.8 °F /  17.1 °C 29.78 in /  1008.4 hPa Calm     64 % 0.00 in /  0 mm
20:59 75.5 °F /  24.2 °C 62.5 °F /  16.9 °C 29.78 in /  1008.4 hPa Calm     64 % 0.00 in /  0 mm
21:04 75.1 °F /  23.9 °C 62.1 °F /  16.7 °C 29.79 in /  1008.7 hPa Calm     64 % 0.00 in /  0 mm
21:09 74.8 °F /  23.8 °C 62.2 °F /  16.8 °C 29.79 in /  1008.7 hPa Calm     65 % 0.00 in /  0 mm
21:14 74.5 °F /  23.6 °C 62.4 °F /  16.9 °C 29.80 in /  1009 hPa Calm     66 % 0.00 in /  0 mm
21:19 74.2 °F /  23.4 °C 62.1 °F /  16.7 °C 29.80 in /  1009 hPa Calm     66 % 0.00 in /  0 mm
21:24 74.0 °F /  23.3 °C 61.9 °F /  16.6 °C 29.80 in /  1009 hPa Calm     66 % 0.00 in /  0 mm
21:29 73.8 °F /  23.2 °C 61.7 °F /  16.5 °C 29.80 in /  1009 hPa Calm     66 % 0.00 in /  0 mm
21:34 73.5 °F /  23.1 °C 61.9 °F /  16.6 °C 29.81 in /  1009.4 hPa Calm     67 % 0.00 in /  0 mm
21:39 73.3 °F /  22.9 °C 62.1 °F /  16.7 °C 29.81 in /  1009.4 hPa Calm     68 % 0.00 in /  0 mm
21:44 73.1 °F /  22.8 °C 61.9 °F /  16.6 °C 29.81 in /  1009.4 hPa Calm     68 % 0.00 in /  0 mm
21:49 72.9 °F /  22.7 °C 61.7 °F /  16.5 °C 29.81 in /  1009.4 hPa Calm     68 % 0.00 in /  0 mm
21:54 72.8 °F /  22.7 °C 61.6 °F /  16.4 °C 29.82 in /  1009.7 hPa NNE 0.1 mph /  0.2 km/h 1.2 mph /  1.9 km/h 68 % 0.00 in /  0 mm
21:59 72.6 °F /  22.6 °C 61.0 °F /  16.1 °C 29.82 in /  1009.7 hPa Calm     67 % 0.00 in /  0 mm
22:04 72.4 °F /  22.4 °C 60.4 °F /  15.8 °C 29.82 in /  1009.7 hPa Calm     66 % 0.00 in /  0 mm
22:09 72.3 °F /  22.4 °C 60.3 °F /  15.7 °C 29.82 in /  1009.7 hPa Calm     66 % 0.00 in /  0 mm
22:14 72.3 °F /  22.4 °C 60.7 °F /  15.9 °C 29.83 in /  1010 hPa Calm     67 % 0.00 in /  0 mm
22:19 72.2 °F /  22.3 °C 61.0 °F /  16.1 °C 29.83 in /  1010 hPa Calm   2.3 mph /  3.7 km/h 68 % 0.00 in /  0 mm
22:24 72.1 °F /  22.3 °C 60.5 °F /  15.8 °C 29.83 in /  1010 hPa Calm     67 % 0.00 in /  0 mm
22:30 72.1 °F /  22.3 °C 61.0 °F /  16.1 °C 29.83 in /  1010 hPa Calm   1.2 mph /  1.9 km/h 68 % 0.00 in /  0 mm
22:35 72.1 °F /  22.3 °C 61.0 °F /  16.1 °C 29.83 in /  1010 hPa Calm     68 % 0.00 in /  0 mm
22:40 72.1 °F /  22.3 °C 61.0 °F /  16.1 °C 29.83 in /  1010 hPa Calm   1.2 mph /  1.9 km/h 68 % 0.00 in /  0 mm
22:45 72.2 °F /  22.3 °C 61.5 °F /  16.4 °C 29.83 in /  1010 hPa WSW 0.2 mph /  0.3 km/h 1.2 mph /  1.9 km/h 69 % 0.00 in /  0 mm
22:50 72.2 °F /  22.3 °C 61.5 °F /  16.4 °C 29.84 in /  1010.4 hPa WSW 0.1 mph /  0.2 km/h 1.2 mph /  1.9 km/h 69 % 0.00 in /  0 mm
22:55 72.3 °F /  22.4 °C 61.6 °F /  16.4 °C 29.83 in /  1010 hPa WSW 0.7 mph /  1.1 km/h 2.3 mph /  3.7 km/h 69 % 0.00 in /  0 mm
23:00 72.4 °F /  22.4 °C 61.7 °F /  16.5 °C 29.83 in /  1010 hPa WSW 1.4 mph /  2.3 km/h 3.5 mph /  5.6 km/h 69 % 0.00 in /  0 mm
23:05 72.4 °F /  22.4 °C 61.7 °F /  16.5 °C 29.83 in /  1010 hPa WSW 0.3 mph /  0.5 km/h 1.2 mph /  1.9 km/h 69 % 0.00 in /  0 mm
23:10 72.5 °F /  22.5 °C 61.7 °F /  16.5 °C 29.83 in /  1010 hPa Calm     69 % 0.00 in /  0 mm
23:15 72.6 °F /  22.6 °C 61.8 °F /  16.6 °C 29.83 in /  1010 hPa Calm   1.2 mph /  1.9 km/h 69 % 0.00 in /  0 mm
23:20 72.6 °F /  22.6 °C 61.8 °F /  16.6 °C 29.83 in /  1010 hPa WSW 0.2 mph /  0.3 km/h 2.3 mph /  3.7 km/h 69 % 0.00 in /  0 mm
23:25 72.6 °F /  22.6 °C 61.8 °F /  16.6 °C 29.84 in /  1010.4 hPa WSW 0.6 mph /  1 km/h 2.3 mph /  3.7 km/h 69 % 0.00 in /  0 mm
23:30 72.6 °F /  22.6 °C 61.8 °F /  16.6 °C 29.84 in /  1010.4 hPa Calm   1.2 mph /  1.9 km/h 69 % 0.00 in /  0 mm
23:36 72.7 °F /  22.6 °C 61.9 °F /  16.6 °C 29.84 in /  1010.4 hPa Calm   2.0 mph /  3.2 km/h 69 % 0.00 in /  0 mm
23:41 72.7 °F /  22.6 °C 61.9 °F /  16.6 °C 29.83 in /  1010 hPa Calm   1.0 mph /  1.6 km/h 69 % 0.00 in /  0 mm
23:42 72.7 °F /  22.6 °C 61.9 °F /  16.6 °C 29.83 in /  1010 hPa Calm     69 % 0.00 in /  0 mm
23:47 72.7 °F /  22.6 °C 62.3 °F /  16.8 °C 29.83 in /  1010 hPa WSW 1.3 mph /  2.1 km/h 4.0 mph /  6.4 km/h 70 % 0.00 in /  0 mm
23:52 72.7 °F /  22.6 °C 62.3 °F /  16.8 °C 29.84 in /  1010.4 hPa WSW 2.4 mph /  3.9 km/h 5.0 mph /  8 km/h 70 % 0.00 in /  0 mm
23:57 72.7 °F /  22.6 °C 62.3 °F /  16.8 °C 29.83 in /  1010 hPa WSW 2.1 mph /  3.4 km/h 3.5 mph /  5.6 km/h 70 % 0.00 in /  0 mm
Crab Meadow Weather
Compliments of Weather Underground - 3 mb

Script developed by  Jim McMurry - jmcmurry@mwt.net Adapted for the template by  Wim van der Kuil - Leuven-Template.eu

Astronomy: February 1865 is the only month recorded in history not to have a full moon.